Content
SEND FEEDBACK

Daily
Averages
Monthly
Summary
Belgium

LEUVEN, BELGIUM


Home > Europe > Belgium
Elevation: 127 meters     Latitude: 50 45N     Longitude: 004 46E

WEATHER
 
SELECT A DAY
Number of Records: 141,791;   Date Range: 7/1/96 - 10/19/14
 
SHARE

PRINT THIS DATA

[ ← Previous Day ]
WEATHER ALMANAC - 31 JANUARY, 2013
[ Next Day → ]
[ °F ]   °C
Weather ElementAverageHighLow
Temperature7.5 °C10 °C (4:25 pm)6 °C (6:25 am)
Dewpoint4.4 °C6 °C (1:14 pm)2.8 °C (10:00 am)
Humidity80 %93 % (12:25 pm)66 % (5:25 pm)
Barometer1015.2 hPa1019.6 hPa (4:00 am)1011.2 hPa (2:25 pm)
Wind Speed32.3 km/h46.3 km/h (11:50 am)
Wind Gust66.6 km/h (4:25 pm)
Weather ElementAverage
Visibility10.3 km
Wind DirectionWSW (233 °)

Weather ElementTotal
Precipitation---
Heating Degree Days10.3 (Base 18.3)
Averaged from 43 records on 31 January, 2013
WEATHER CONDITIONS BREAKOUT
WIND DIRECTION BREAKOUT
WEATHER BY HOUR - 31 JANUARY, 2013
[ °F ]   °C
Local TimeTemperatureDewpointHumidityBarometerVisibilityWind DirectionWind SpeedGust SpeedPrecipitationEventsConditions
1:00 AM7.8 °C3.9 °C70 %1019 hPa12.9 kmWSW (250°)25.3 km/hMostly Cloudy
1:25 AM8 °C4 °C76 %1017.9 hPa10 kmWSW (240°)22.2 km/hMostly Cloudy
2:25 AM7 °C4 °C81 %1019 hPa10 kmWSW (240°)25.9 km/hScattered Clouds
3:25 AM7 °C5 °C87 %1019 hPa10 kmWSW (240°)27.8 km/hScattered Clouds
4:00 AM7.8 °C4.4 °C72 %1019.6 hPa12.9 kmWSW (240°)32.3 km/hScattered Clouds
4:06 AM8 °C4 °C76 %1019 hPa10 kmWSW (240°)27.8 km/hMostly Cloudy
4:25 AM8 °C4 °C76 %1019 hPa10 kmWSW (240°)27.8 km/hMostly Cloudy
4:46 AM8 °C5 °C81 %1019 hPa10 kmWSW (240°)24.1 km/hOvercast
4:52 AM8 °C4 °C76 %1019 hPa10 kmWSW (240°)25.9 km/hMostly Cloudy
4:58 AM7 °C4 °C81 %1017.9 hPa10 kmWSW (240°)27.8 km/hMostly Cloudy
5:25 AM7 °C4 °C81 %1017.9 hPa10 kmSW (230°)25.9 km/hMostly Cloudy
6:25 AM6 °C4 °C87 %1017.3 hPa10 kmSW (220°)27.8 km/hMostly Cloudy
7:00 AM6.7 °C4.4 °C79 %1017.6 hPa14.5 kmSW (220°)28.8 km/hOvercast
7:25 AM7 °C4 °C81 %1017.3 hPa10 kmSW (220°)27.8 km/hMostly Cloudy
8:25 AM6 °C4 °C87 %1016.3 hPa10 kmSSW (200°)33.3 km/hMostly Cloudy
9:25 AM6 °C3 °C81 %1015.2 hPa10 kmSSW (210°)35.2 km/hMostly Cloudy
10:00 AM6.7 °C2.8 °C69 %1014.9 hPa25.7 kmSSW (210°)36 km/hPartly Cloudy
10:25 AM7 °C3 °C76 %1013.2 hPa10 kmSSW (210°)44.4 km/h62.9 km/hMostly Cloudy
11:25 AM7 °C3 °C76 %1013.2 hPa10 kmSW (230°)44.4 km/hMostly Cloudy
11:50 AM7 °C4 °C81 %1013.2 hPa6.9 kmSW (220°)46.3 km/hDrizzle
11:58 AM7 °C4 °C81 %1013.2 hPaSW (220°)44.4 km/hRainLight Rain
12:04 PM6 °C4 °C87 %1013.2 hPa5 kmSW (220°)42.6 km/hRainLight Rain
12:25 PM6 °C5 °C93 %1013.2 hPa8 kmSW (230°)38.9 km/h59.2 km/hRainLight Rain
12:42 PM6 °C5 °C93 %1013.2 hPaSW (220°)42.6 km/hRainLight Rain
12:48 PM6 °C5 °C93 %1013.2 hPa5 kmSW (220°)42.6 km/hRainLight Rain
1:00 PM6.7 °C5 °C87 %1013.9 hPa6.4 kmSW (230°)39.6 km/hRainLight Rain
1:14 PM7 °C6 °C93 %1013.2 hPaSW (220°)37 km/hRainLight Rain
1:25 PM7 °C6 °C93 %1013.2 hPaSW (230°)33.3 km/hRainLight Rain
2:25 PM9 °C6 °C82 %1011.2 hPa10 kmWSW (240°)33.3 km/hMostly Cloudy
2:32 PM9 °C6 °C82 %1011.2 hPa10 kmWSW (240°)35.2 km/hMostly Cloudy
3:25 PM9 °C6 °C82 %1011.2 hPa10 kmWSW (240°)35.2 km/hMostly Cloudy
4:25 PM10 °C5 °C71 %1011.2 hPa10 kmWSW (240°)35.2 km/h66.6 km/hMostly Cloudy
5:25 PM9 °C3 °C66 %1012.2 hPa10 kmWSW (250°)31.5 km/hPartly Cloudy
6:25 PM9 °C4 °C71 %1013.2 hPa10 kmWSW (250°)25.9 km/hMostly Cloudy
7:00 PM8.3 °C3.9 °C66 %1014.2 hPa12.9 kmWSW (250°)25.3 km/hClear
7:25 PM8 °C4 °C76 %1014.2 hPa10 kmWSW (250°)29.6 km/hMostly Cloudy
8:25 PM8 °C4 °C76 %1014.2 hPa10 kmWSW (250°)27.8 km/hMostly Cloudy
9:25 PM8 °C4 °C76 %1014.2 hPa10 kmWSW (240°)29.6 km/hMostly Cloudy
10:00 PM7.8 °C4.4 °C74 %1014.9 hPa9.7 kmWSW (240°)28.8 km/hMostly Cloudy
10:25 PM8 °C5 °C81 %1014.2 hPa10 kmWSW (240°)27.8 km/hScattered Clouds
10:56 PM8 °C5 °C81 %1014.2 hPa10 kmWSW (240°)29.6 km/hMostly Cloudy
11:25 PM8 °C5 °C81 %1014.2 hPa10 kmWSW (240°)29.6 km/hMostly Cloudy
11:41 PM8 °C5 °C81 %1014.2 hPa10 kmWSW (240°)29.6 km/hScattered Clouds
Hourly data recorded from EBBE, located 0 kilometers away from Leuven, Belgium







STORIES FROM OUR PARTNERS